Viroqua, WI

10:21 AM CDT on May 29, 2017 (GMT -0500)
Viroqua

Weather History for KY51 - January, 2013

Change the Weather History Date:

Wednesday, January 9, 2013

  Actual Average (KCMY) Record (KCMY)
Temperature  
Mean Temperature 29 °F -  
Max Temperature 35 °F 20 °F 53 °F (2002)
Min Temperature 23 °F 1 °F -36 °F (1977)
Degree Days  
Heating Degree Days 36    
Moisture  
Dew Point 25 °F    
Average Humidity 81    
Maximum Humidity 93    
Minimum Humidity 60    
Precipitation  
Precipitation 0.00 in - - ()
Sea Level Pressure  
Sea Level Pressure 30.19 in    
Wind  
Wind Speed 13 mph (WSW)    
Max Wind Speed 25 mph    
Max Gust Speed 33 mph    
Visibility 10 miles    
Events      
Averages and records for this station are not official NWS values.
T = Trace of Precipitation, MM = Missing Value Source: NWS Daily Summary

Daily Weather History Graph

Daily Weather History Graph

Search for Another Location

Airport or City:

Trip Planner

Search our weather history database for the weather conditions in past years. The results will help you decide how hot, cold, wet, or windy it might be!

Date:

Astronomy

Jan. 09, 2013 Rise Set
Actual Time 7:36 AM CST 4:46 PM CST
Civil Twilight 7:03 AM CST 5:18 PM CST
Nautical Twilight 6:28 AM CST 5:53 PM CST
Astronomical Twilight 5:53 AM CST 6:28 PM CST
Moon 5:15 AM CST (1/9) 2:47 PM CST (1/9)
Length of Visible Light 10h 14m
Length of Day
9h 10m
Waning Crescent, 6% of the Moon is Illuminated
Jan 9
Waning Crescent
Jan 11
New
Jan 18
First Quarter
Jan 26
Full
Feb 3
Last Quarter

Hourly Weather History & Observations

Time (CST) Temp. Windchill Dew Point Humidity Pressure Visibility Wind Dir Wind Speed Gust Speed Precip Events Conditions
12:15 AM 32.0 °F 20.5 °F 28.4 °F 87% 29.91 in 10.0 mi West 18.4 mph 26.5 mph N/A   Scattered Clouds
12:35 AM 32.0 °F 22.1 °F 28.4 °F 87% 29.92 in 10.0 mi West 13.8 mph 26.5 mph N/A   Mostly Cloudy
12:55 AM 32.0 °F 22.1 °F 28.4 °F 87% 29.92 in 10.0 mi West 13.8 mph - N/A   Overcast
1:15 AM 32.0 °F 22.1 °F 28.4 °F 87% 29.93 in 10.0 mi West 13.8 mph 19.6 mph N/A   Overcast
1:35 AM 30.2 °F 19.3 °F 28.4 °F 93% 29.94 in 10.0 mi West 15.0 mph - N/A   Mostly Cloudy
1:55 AM 30.2 °F 19.8 °F 28.4 °F 93% 29.95 in 10.0 mi West 13.8 mph - N/A   Scattered Clouds
2:15 AM 30.2 °F 19.8 °F 28.4 °F 93% 29.97 in 10.0 mi WSW 13.8 mph - N/A   Scattered Clouds
2:35 AM 30.2 °F 19.8 °F 28.4 °F 93% 29.97 in 10.0 mi WSW 13.8 mph - N/A   Mostly Cloudy
2:55 AM 30.2 °F 20.8 °F 26.6 °F 86% 29.98 in 10.0 mi West 11.5 mph - N/A   Mostly Cloudy
3:15 AM 28.4 °F 19.7 °F 26.6 °F 93% 29.99 in 10.0 mi WSW 9.2 mph - N/A   Scattered Clouds
3:35 AM 28.4 °F 18.5 °F 26.6 °F 93% 30.00 in 10.0 mi WSW 11.5 mph - N/A   Scattered Clouds
3:55 AM 30.2 °F 20.8 °F 26.6 °F 86% 30.01 in 10.0 mi West 11.5 mph - N/A   Mostly Cloudy
4:15 AM 30.2 °F 20.8 °F 26.6 °F 86% 30.00 in 10.0 mi WSW 11.5 mph - N/A   Scattered Clouds
4:35 AM 28.4 °F 18.5 °F 26.6 °F 93% 30.00 in 10.0 mi WSW 11.5 mph - N/A   Clear
4:55 AM 28.4 °F 18.0 °F 26.6 °F 93% 30.02 in 10.0 mi West 12.7 mph - N/A   Clear
5:15 AM 28.4 °F 19.1 °F 26.6 °F 93% 30.02 in 10.0 mi WSW 10.4 mph - N/A   Clear
5:35 AM 28.4 °F 19.1 °F 26.6 °F 93% 30.03 in 10.0 mi WSW 10.4 mph - N/A   Clear
5:55 AM 28.4 °F 17.5 °F 26.6 °F 93% 30.03 in 10.0 mi WSW 13.8 mph - N/A   Clear
6:15 AM 30.2 °F 20.2 °F 26.6 °F 86% 30.04 in 10.0 mi SW 12.7 mph - N/A   Clear
6:35 AM 30.2 °F 19.3 °F 26.6 °F 86% 30.05 in 10.0 mi WSW 15.0 mph - N/A   Clear
6:55 AM 30.2 °F 18.5 °F 26.6 °F 86% 30.06 in 10.0 mi WSW 17.3 mph - N/A   Clear
7:15 AM 30.2 °F 19.3 °F 26.6 °F 86% 30.07 in 10.0 mi West 15.0 mph 18.4 mph N/A   Clear
7:35 AM 30.2 °F 19.3 °F 26.6 °F 86% 30.07 in 10.0 mi West 15.0 mph 21.9 mph N/A   Clear
7:55 AM 30.2 °F 18.9 °F 26.6 °F 86% 30.09 in 10.0 mi West 16.1 mph - N/A   Clear
8:15 AM 30.2 °F 18.5 °F 26.6 °F 86% 30.09 in 10.0 mi WSW 17.3 mph 23.0 mph N/A   Clear
8:35 AM 30.2 °F 19.8 °F 26.6 °F 86% 30.10 in 10.0 mi West 13.8 mph - N/A   Clear
8:55 AM 30.2 °F 19.8 °F 26.6 °F 86% 30.11 in 10.0 mi West 13.8 mph - N/A   Clear
9:15 AM 32.0 °F 20.5 °F 26.6 °F 80% 30.11 in 10.0 mi West 18.4 mph 24.2 mph N/A   Clear
9:35 AM 32.0 °F 21.2 °F 26.6 °F 80% 30.13 in 10.0 mi West 16.1 mph - N/A   Clear
9:55 AM 32.0 °F 21.6 °F 26.6 °F 80% 30.15 in 10.0 mi West 15.0 mph - N/A   Clear
10:15 AM 32.0 °F 21.2 °F 26.6 °F 80% 30.15 in 10.0 mi West 16.1 mph 19.6 mph N/A   Clear
10:55 AM 33.8 °F 24.3 °F 24.8 °F 70% 30.16 in 10.0 mi West 13.8 mph 20.7 mph N/A   Clear
11:35 AM 35.6 °F 25.9 °F 23.0 °F 60% 30.20 in 10.0 mi WSW 16.1 mph 21.9 mph N/A   Clear
12:35 PM 35.6 °F 24.5 °F 24.8 °F 65% 30.23 in 10.0 mi WSW 20.7 mph 27.6 mph N/A   Clear
12:55 PM 33.8 °F 23.2 °F 26.6 °F 75% 30.24 in 10.0 mi WSW 17.3 mph 25.3 mph N/A   Clear
1:15 PM 33.8 °F 22.2 °F 24.8 °F 70% 30.26 in 10.0 mi WSW 20.7 mph 27.6 mph N/A   Clear
1:35 PM 33.8 °F 22.2 °F 24.8 °F 70% 30.27 in 10.0 mi West 20.7 mph 31.1 mph N/A   Clear
1:55 PM 33.8 °F 22.2 °F 24.8 °F 70% 30.29 in 10.0 mi West 20.7 mph 27.6 mph N/A   Clear
2:15 PM 33.8 °F 21.0 °F 24.8 °F 70% 30.31 in 10.0 mi WSW 25.3 mph 33.4 mph N/A   Clear
2:35 PM 33.8 °F 21.6 °F 24.8 °F 70% 30.32 in 10.0 mi West 23.0 mph 29.9 mph N/A   Clear
3:15 PM 33.8 °F 23.5 °F 24.8 °F 70% 30.35 in 10.0 mi West 16.1 mph 24.2 mph N/A   Clear
3:35 PM 33.8 °F 23.5 °F 24.8 °F 70% 30.35 in 10.0 mi West 16.1 mph 21.9 mph N/A   Clear
3:55 PM 33.8 °F 25.8 °F 24.8 °F 70% 30.35 in 10.0 mi West 10.4 mph - N/A   Clear
4:15 PM 32.0 °F 24.2 °F 24.8 °F 75% 30.36 in 10.0 mi West 9.2 mph - N/A   Clear
4:35 PM 32.0 °F 24.2 °F 24.8 °F 75% 30.36 in 10.0 mi West 9.2 mph - N/A   Clear
4:55 PM 32.0 °F 26.4 °F 23.0 °F 69% 30.36 in 10.0 mi West 5.8 mph - N/A   Clear
5:15 PM 30.2 °F 23.4 °F 23.0 °F 75% 30.35 in 10.0 mi WNW 6.9 mph - N/A   Clear
5:35 PM 30.2 °F 23.4 °F 23.0 °F 75% 30.35 in 10.0 mi West 6.9 mph - N/A   Clear
5:55 PM 30.2 °F 24.3 °F 23.0 °F 75% 30.36 in 10.0 mi WSW 5.8 mph - N/A   Clear
6:15 PM 30.2 °F 25.4 °F 23.0 °F 75% 30.37 in 10.0 mi West 4.6 mph - N/A   Clear
6:35 PM 30.2 °F 26.7 °F 23.0 °F 75% 30.36 in 10.0 mi NW 3.5 mph - N/A   Clear
6:55 PM 30.2 °F - 23.0 °F 75% 30.37 in 10.0 mi Calm Calm - N/A   Clear
7:15 PM 30.2 °F - 23.0 °F 75% 30.36 in 10.0 mi Calm Calm - N/A   Clear
7:35 PM 30.2 °F 26.7 °F 23.0 °F 75% 30.37 in 10.0 mi WSW 3.5 mph - N/A   Clear
8:15 PM 26.6 °F 21.2 °F 21.2 °F 80% 30.38 in 10.0 mi SSW 4.6 mph - N/A   Clear
8:35 PM 28.4 °F 21.2 °F 23.0 °F 80% 30.38 in 10.0 mi SSE 6.9 mph - N/A   Clear
8:55 PM 30.2 °F 26.7 °F 23.0 °F 75% 30.37 in 10.0 mi SSE 3.5 mph - N/A   Clear
9:15 PM 28.4 °F 24.6 °F 23.0 °F 80% 30.36 in 10.0 mi SE 3.5 mph - N/A   Clear
9:35 PM 23.0 °F 14.7 °F 19.4 °F 86% 30.38 in 10.0 mi SSW 6.9 mph - N/A   Clear
9:55 PM 26.6 °F 22.6 °F 23.0 °F 86% 30.36 in 10.0 mi South 3.5 mph - N/A   Clear
10:15 PM 24.8 °F 17.9 °F 21.2 °F 86% 30.36 in 10.0 mi SSE 5.8 mph - N/A   Clear
10:35 PM 26.6 °F 20.0 °F 23.0 °F 86% 30.36 in 10.0 mi South 5.8 mph - N/A   Clear
10:55 PM 28.4 °F 19.7 °F 23.0 °F 80% 30.37 in 10.0 mi South 9.2 mph - N/A   Clear
11:15 PM 26.6 °F 18.2 °F 23.0 °F 86% 30.38 in 10.0 mi South 8.1 mph - N/A   Clear
11:35 PM 26.6 °F 17.5 °F 23.0 °F 86% 30.39 in 10.0 mi SSW 9.2 mph - N/A   Clear
11:55 PM 28.4 °F 20.4 °F 23.0 °F 80% 30.41 in 10.0 mi South 8.1 mph - N/A   Clear